Weather History for Alexandria, MN

Change the Weather History Date:

Wednesday, February 19, 2014

  Actual Average Record
Temperature  
Mean Temperature 24 °F -  
Max Temperature 37 °F 25 °F 50 °F (1981)
Min Temperature 12 °F 6 °F -20 °F (2008)
Degree Days  
Heating Degree Days 40    
Moisture  
Dew Point 19 °F    
Average Humidity 85    
Maximum Humidity 100    
Minimum Humidity 62    
Precipitation  
Precipitation 0.00 in - - ()
Sea Level Pressure  
Sea Level Pressure 29.74 in    
Wind  
Wind Speed 8 mph (SSW)    
Max Wind Speed 21 mph    
Max Gust Speed 32 mph    
Visibility 5 miles    
Events Fog    
Averages and records for this station are not official NWS values.
T = Trace of Precipitation, MM = Missing Value Source: NWS Daily Summary

Daily Weather History Graph

Daily Weather History Graph

Search for Another Location

Airport:

Trip Planner

Search our weather history database for the weather conditions in past years. The results will help you decide how hot, cold, wet, or windy it might be!

Date:

Astronomy

Feb. 19, 2014 Rise Set
Actual Time 7:17 AM CST 5:53 PM CST
Civil Twilight 6:47 AM CST 6:24 PM CST
Nautical Twilight 6:12 AM CST 6:59 PM CST
Astronomical Twilight 5:37 AM CST 7:33 PM CST
Moon 11:06 PM CST (2/19) 9:07 AM CST (2/19)
Length of Visible Light 11h 37m
Length of Day
10h 36m
Waning Gibbous, 79% of the Moon is Illuminated
Feb 19
Waning Gibbous
Feb 22
Last Quarter
Mar 1
New
Mar 8
First Quarter
Mar 16
Full

Hourly Weather History & Observations

Time (CST) Temp. Windchill Dew Point Humidity Pressure Visibility Wind Dir Wind Speed Gust Speed Precip Events Conditions
12:53 AM 23.0 °F 15.8 °F 19.0 °F 85% 29.81 in 10.0 mi West 5.8 mph - N/A   Clear
1:53 AM 24.1 °F 14.4 °F 19.9 °F 84% 29.81 in 10.0 mi West 9.2 mph - N/A   Clear
2:53 AM 23.0 °F 15.8 °F 19.9 °F 88% 29.81 in 10.0 mi West 5.8 mph - N/A   Clear
3:53 AM 23.0 °F 13.9 °F 19.9 °F 88% 29.81 in 10.0 mi WNW 8.1 mph - N/A   Clear
4:53 AM 19.0 °F 11.1 °F 17.1 °F 92% 29.82 in 6.0 mi WSW 5.8 mph - N/A   Clear
5:01 AM 15.8 °F 7.2 °F 15.8 °F 100% 29.75 in 1.8 mi WSW 5.8 mph - N/A   Clear
5:08 AM 15.8 °F 7.2 °F 14.0 °F 93% 29.75 in 1.2 mi West 5.8 mph - N/A   Clear
5:19 AM 15.8 °F 8.6 °F 12.2 °F 86% 29.75 in 0.5 mi West 4.6 mph - N/A Fog Light Freezing Fog
5:53 AM 12.9 °F - 10.9 °F 92% 29.82 in 0.2 mi Calm Calm - N/A Fog Light Freezing Fog
6:53 AM 15.1 °F 6.4 °F 14.0 °F 95% 29.81 in 0.2 mi WSW 5.8 mph - N/A Fog Light Freezing Fog
7:46 AM 17.6 °F 9.3 °F 15.8 °F 93% 29.74 in 0.8 mi SW 5.8 mph - N/A   Clear
7:53 AM 19.9 °F 12.1 °F 18.0 °F 92% 29.81 in 1.0 mi SW 5.8 mph - N/A   Clear
7:57 AM 17.6 °F 8.2 °F 15.8 °F 93% 29.74 in 0.5 mi SW 6.9 mph - N/A Fog Light Freezing Fog
8:12 AM 14.0 °F 2.9 °F 10.4 °F 86% 29.75 in 1.2 mi SW 8.1 mph - N/A   Clear
8:14 AM 14.0 °F 2.0 °F 10.4 °F 86% 29.76 in 2.0 mi SW 9.2 mph - N/A   Clear
8:21 AM 15.8 °F 5.1 °F 12.2 °F 86% 29.76 in 3.0 mi SW 8.1 mph - N/A   Partly Cloudy
8:27 AM 15.8 °F 5.1 °F 12.2 °F 86% 29.76 in 1.2 mi SW 8.1 mph - N/A   Scattered Clouds
8:29 AM 15.8 °F 5.1 °F 12.2 °F 86% 29.76 in 0.8 mi SW 8.1 mph - N/A   Mist
8:36 AM 15.8 °F 8.6 °F 14.0 °F 93% 29.75 in 0.5 mi SSW 4.6 mph - N/A Fog Light Freezing Fog
8:40 AM 15.8 °F 7.2 °F 14.0 °F 93% 29.76 in 1.0 mi SSW 5.8 mph - N/A   Mist
8:43 AM 15.8 °F 7.2 °F 14.0 °F 93% 29.76 in 3.0 mi SSW 5.8 mph - N/A   Mostly Cloudy
8:53 AM 16.0 °F 10.4 °F 15.1 °F 96% 29.83 in 3.0 mi SW 3.5 mph - N/A   Overcast
8:56 AM 17.6 °F 12.3 °F 15.8 °F 93% 29.75 in 1.8 mi SW 3.5 mph - N/A   Overcast
8:59 AM 17.6 °F - 15.8 °F 93% 29.75 in 0.8 mi Calm Calm - N/A   Mist
9:06 AM 15.8 °F 8.6 °F 15.8 °F 100% 29.75 in 0.2 mi SW 4.6 mph - N/A Fog Light Freezing Fog
9:27 AM 19.4 °F 11.5 °F 19.4 °F 100% 29.76 in 1.2 mi SW 5.8 mph - N/A   Mostly Cloudy
9:29 AM 19.4 °F 10.4 °F 17.6 °F 93% 29.76 in 2.0 mi SW 6.9 mph - N/A   Mostly Cloudy
9:33 AM 19.4 °F 10.4 °F 17.6 °F 93% 29.75 in 4.0 mi SSW 6.9 mph - N/A   Scattered Clouds
9:44 AM 21.2 °F 12.6 °F 19.4 °F 93% 29.75 in 2.0 mi SSW 6.9 mph - N/A   Scattered Clouds
9:53 AM 23.0 °F 13.9 °F 21.0 °F 92% 29.82 in 10.0 mi SSW 8.1 mph - N/A   Partly Cloudy
10:53 AM 28.9 °F 20.4 °F 24.1 °F 82% 29.80 in 10.0 mi SSW 9.2 mph - N/A   Clear
11:53 AM 33.1 °F 24.4 °F 25.0 °F 72% 29.78 in 10.0 mi SSW 11.5 mph - N/A   Clear
12:53 PM 34.0 °F 25.5 °F 26.1 °F 73% 29.74 in 10.0 mi South 11.5 mph - N/A   Clear
1:53 PM 36.0 °F 28.5 °F 26.1 °F 67% 29.72 in 10.0 mi SSE 10.4 mph - N/A   Clear
2:53 PM 37.0 °F 30.4 °F 26.1 °F 65% 29.68 in 10.0 mi SE 9.2 mph - N/A   Mostly Cloudy
3:53 PM 36.0 °F 26.3 °F 27.0 °F 70% 29.66 in 10.0 mi SE 16.1 mph - N/A   Overcast
4:53 PM 34.0 °F 24.2 °F 27.0 °F 75% 29.66 in 10.0 mi SE 15.0 mph - N/A   Overcast
5:53 PM 33.1 °F 23.4 °F 27.0 °F 78% 29.66 in 10.0 mi SE 13.8 mph - N/A   Partly Cloudy
6:53 PM 32.0 °F 21.2 °F 26.1 °F 79% 29.63 in 10.0 mi SE 16.1 mph - N/A   Clear
7:53 PM 32.0 °F 21.6 °F 26.1 °F 79% 29.61 in 10.0 mi SE 15.0 mph - N/A   Partly Cloudy
8:53 PM 35.1 °F 24.5 °F 28.0 °F 76% 29.59 in 10.0 mi SE 18.4 mph - N/A   Clear
9:53 PM 37.0 °F 26.4 °F 28.0 °F 70% 29.57 in 10.0 mi South 20.7 mph 26.5 mph N/A   Clear
10:53 PM 37.9 °F 28.2 °F 26.1 °F 62% 29.57 in 10.0 mi South 18.4 mph 32.2 mph N/A   Clear
11:53 PM 37.0 °F 27.4 °F 27.0 °F 67% 29.57 in 10.0 mi South 17.3 mph 28.8 mph N/A   Clear